LPL Profile,,,,,,,,,,,,,,,,,,,,,,,,,
(in kWh),,,,,,,,,,,,,,,,,,,,,,,,,

,1:00 AM,2:00 AM,3:00 AM,4:00 AM,5:00 AM,6:00 AM,7:00 AM,8:00 AM,9:00 AM,10:00 AM,11:00 AM,12:00 AM,1:00 PM,2:00 PM,3:00 PM,4:00 PM,5:00 PM,6:00 PM,7:00 PM,8:00 PM,9:00 PM,10:00 PM,11:00 PM,12:00 PM,DSL
1/1/2011,71.50628,70.54701,69.91509,69.15358,69.4991,70.1083,71.24033,70.52429,69.81052,70.18786,70.38335,68.71031,68.36026,68.13066,68.65349,69.3377,71.49492,74.46819,73.92491,72.77243,71.78134,70.94709,69.71277,66.82816,0
1/2/2011,63.88415,63.24377,62.78969,62.72682,63.11337,64.2125,65.05081,65.87282,66.96496,66.74374,68.08271,68.5205,69.07006,68.97225,69.68249,70.2274,74.14884,76.12819,76.28654,74.93825,75.35043,74.7147,72.85179,71.1053,0
1/3/2011,73.7307,73.4019,75.6087,76.6387,79.9786,84.6061,96.1986,116.1269,128.6385,129.1496,129.2288,129.7914,127.0656,128.6345,126.4674,117.1886,109.3719,110.7744,103.3815,100.0971,98.5004,94.8,88.9127,86.2859,0
1/4/2011,82.7317,81.4738,82.6768,84.2555,85.695,88.9749,98.8061,118.8738,133.1162,136.6367,138.2872,135.5054,131.1871,133.3694,131.7485,122.9683,114.9354,114.2262,108.2743,105.9315,102.297,97.5735,92.774,86.8305,0
1/5/2011,83.9663,82.3547,81.8133,82.7408,88.0372,90.6351,100.2206,119.8115,131.7515,133.8625,136.687,137.4886,132.4356,133.0861,134.1815,123.1606,115.8329,114.0786,108.2282,105.7437,101.7231,98.907,93.9254,89.3634,0
1/6/2011,87.2444,86.2129,86.1919,87.2318,89.059,92.3135,102.6412,123.705,132.4454,137.1777,137.9272,136.1504,133.3885,134.6348,134.4158,129.4225,119.3432,117.2886,109.6092,106.2073,103.037,98.3047,92.4777,86.5792,0
1/7/2011,83.4709,81.16,80.3548,82.0575,85.3539,88.5539,96.1741,116.9884,129.5071,134.2252,136.1922,137.3916,133.8352,130.8911,129.0751,121.1948,113.9185,113.9814,107.0992,103.8573,102.4272,98.9337,94.7776,89.8246,0
1/8/2011,85.37179,84.57498,84.3538,84.42753,84.71109,85.07688,86.60244,88.80571,91.17913,92.89467,92.22547,91.4797,90.77079,89.32747,88.43708,88.34068,89.93429,92.46082,91.73774,89.97115,89.67909,88.84825,87.19225,84.13262,0
1/9/2011,80.85445,79.22162,78.69082,78.21121,78.82285,80.79248,82.62199,83.5381,83.90454,84.20362,83.60815,83.88029,82.8618,82.234,81.92144,81.08617,83.06657,87.02738,88.26952,87.31299,86.84416,86.22444,84.39223,83.42224,0
1/10/2011,83.8374,83.6623,85.4857,86.4678,87.9624,91.4682,103.079,124.3832,136.4038,138.667,139.8926,139.2265,135.5284,138.018,135.8743,127.4065,119.814,119.024,115.01,111.9226,107.1827,103.2541,97.3996,91.2248,0
1/11/2011,89.5698,87.5014,87.4131,89.614,90.5465,93.1319,104.0259,126.0173,138.4891,141.3087,144.7824,141.375,138.9089,137.7775,137.919,130.5075,120.5946,120.9835,114.5885,110.9778,107.3184,103.69,96.3272,90.0338,0
1/12/2011,86.0147,84.9206,84.1839,85.3546,87.6888,90.271,94.3485,102.8756,110.396,113.3904,115.9069,117.0849,119.4811,118.5438,119.0179,116.5196,113.5982,115.9434,110.4033,109.6921,106.9568,103.0397,99.6551,92.9188,0
1/13/2011,90.4967,89.2284,88.1269,89.0836,92.1775,95.5216,105.589,126.8999,137.7967,141.1759,142.8348,143.7696,140.8599,141.8386,139.438,132.1091,122.1602,123.8586,119.1716,115.8451,113.0627,108.8014,103.816,98.0626,0
1/14/2011,94.0436,92.0964,91.0965,93.0042,94.8637,98.8852,107.3274,128.8385,141.0873,143.6704,143.0345,140.3198,138.3726,137.3025,135.6097,128.2069,118.3044,117.7167,112.8225,111.6252,109.0334,104.9767,101.6613,96.039,0
1/15/2011,90.66374,89.54101,88.19545,88.66968,88.27544,88.99822,91.65791,92.25212,93.58911,93.00061,92.71778,92.28926,91.22081,89.86383,87.82121,87.9212,87.63838,90.13523,88.58398,87.24414,86.04999,85.11009,82.90464,81.13056,0
1/16/2011,78.47249,77.24208,75.77047,76.79491,76.49408,78.22587,79.1148,79.35871,80.88724,81.24498,81.95775,83.95513,82.26129,81.19348,80.68669,80.57015,82.19625,87.47834,88.78462,87.93363,87.60029,86.5623,82.79518,80.27745,0
1/17/2011,82.0784,83.5182,83.5964,85.267,86.4133,90.0362,99.4456,114.8487,123.143,126.4803,128.1705,127.6971,123.3934,123.949,124.6884,119.7158,113.9997,114.2853,108.7062,106.2258,103.7062,100.1655,95.7523,91.2178,0
1/18/2011,87.3787,86.4471,86.289,88.1137,91.8615,93.3359,102.169,119.626,129.8181,134.3778,139.9974,139.3435,138.0487,138.0273,137.1427,130.2198,121.4935,119.4208,113.0064,109.1262,105.9254,100.699,95.8914,88.1522,0
1/19/2011,83.8351,82.1225,81.6206,83.2024,87.3108,90.8371,99.4126,116.9388,129.4709,133.2292,138.1855,136.7387,131.5715,131.1792,131.0063,123.6414,116.4538,114.6948,108.0639,105.0142,100.9142,96.6371,92.3472,86.9438,0
1/20/2011,82.87,81.3036,81.4841,83.2606,85.9903,90.4544,101.4363,120.3889,131.8495,136.0491,137.1494,137.5777,135.163,134.4155,134.1635,127.0788,117.6172,118.3521,113.2413,106.7025,103.5067,98.2026,93.3395,88.3756,0
1/21/2011,85.3885,82.9505,81.3147,83.8195,86.3479,90.7324,97.7711,110.8064,120.1927,126.3505,128.6745,128.8003,127.4555,127.8645,128.82,120.7628,113.5275,115.8082,113.1422,110.134,108.2465,104.9199,101.2943,96.9886,0
1/22/2011,91.44112,89.6389,88.82877,89.26612,89.28373,90.44608,94.01825,95.36552,96.15803,93.74234,94.57301,94.28536,92.10742,89.54203,88.96086,87.40812,88.4648,93.53394,94.5554,93.622,93.90084,92.70914,91.12998,88.69962,0
1/23/2011,85.95117,83.81007,82.99793,83.2844,84.27668,85.48161,86.72197,86.86373,87.69063,87.82057,87.28899,87.46914,88.31377,86.80171,87.01729,88.32263,90.33083,95.32772,96.74822,95.92132,95.30705,94.19663,91.77497,90.94511,0
1/24/2011,89.3875,89.632,90.4744,92.2813,95.1435,98.8389,111.6596,132.0569,144.3659,147.0469,148.3602,147.6039,142.7129,141.626,137.9216,130.7572,121.6409,120.4951,117.8051,114.0508,111.5509,106.9317,101.6784,97.0908,0
1/25/2011,93.153,92.1847,89.9544,89.2227,91.7246,93.784,104.7336,125.2527,138.3186,141.6443,143.5415,142.3234,137.6088,137.0042,134.9842,128.6178,117.4447,117.4972,113.1419,108.8304,106.2716,100.2337,95.9222,88.193,0
1/26/2011,85.3841,84.7359,84.5804,84.965,88.7113,91.4854,101.6745,120.4927,133.1318,138.1788,140.9961,141.5578,137.5738,136.0182,134.7997,125.7385,117.7704,117.9649,111.9413,107.5641,103.0486,99.3325,94.6571,89.4977,0
1/27/2011,86.5974,85.2538,84.6428,85.4325,88.3234,89.3239,94.6733,100.7338,107.927,111.1538,115.1238,117.0641,116.6246,116.4781,116.7711,111.5897,106.5155,107.148,103.2709,100.8588,98.068,94.5875,91.1249,85.6969,0
1/28/2011,82.5307,82.4361,81.8935,83.7844,88.2856,91.4673,98.213,114.5942,126.0384,129.9682,134.6667,131.9249,130.1039,131.4275,130.1162,123.0211,114.4421,112.6046,106.7181,104.1242,101.0782,96.4248,92.2607,86.6825,0
1/29/2011,81.94291,80.07908,79.85498,79.45872,79.53797,80.57647,83.6455,87.49887,89.42829,89.52941,88.79973,89.2042,88.68222,85.13493,84.72499,85.50113,85.87281,88.90904,88.19303,86.79106,85.96846,85.42461,82.94042,80.01622,0
1/30/2011,77.13039,75.24332,74.16835,74.92317,74.4963,76.13089,78.09085,79.54324,77.0523,77.73946,77.80453,77.84097,77.71083,76.70873,77.10437,78.06221,79.15281,83.46054,85.26952,84.17111,83.28093,82.73694,80.22779,78.61662,0
1/31/2011,81.5493,82.9521,84.2285,84.9952,88.7824,90.6192,103.8807,123.217,133.003,137.1357,137.4811,138.0077,134.528,133.9804,131.7392,123.8952,117.0201,115.4109,109.2561,105.5784,103.5395,99.272,93.7324,88.4159,0
2/1/2011,86.4456,85.0413,85.1702,87.2011,90.2142,93.9472,103.1819,123.1801,136.6145,140.143,145.587,144.0938,140.463,140.3341,138.7654,130.215,123.6912,121.7802,114.0476,110.0435,106.2083,103.0397,97.5024,90.4675,0
2/2/2011,87.9865,86.5548,86.3984,87.1965,91.5076,94.5995,101.361,115.6698,125.6274,127.2195,131.3782,130.3917,127.3158,129.754,126.6821,120.7228,113.5162,111.3146,106.7187,103.0653,101.9665,98.7141,92.7708,87.8983,0
2/3/2011,85.1898,83.3133,83.439,86.0608,89.4757,93.4409,105.627,126.2159,138.5753,141.3834,141.3184,141.9685,141.7865,140.0357,137.5005,127.867,117.6917,116.786,111.044,107.1741,105.0983,102.7538,98.9229,91.2308,0
2/4/2011,89.4392,89.0045,89.0088,90.1766,92.4099,96.1903,105.1278,125.6709,136.194,139.6249,139.1561,137.4981,134.0331,133.9564,130.9729,123.7488,114.0569,112.352,106.8796,103.2866,100.0475,95.1078,91.8089,86.2683,0
2/5/2011,82.08184,79.65649,78.38043,78.89592,79.58607,80.41706,82.76354,87.60861,91.22553,92.28186,91.7213,90.70158,90.14102,88.17481,88.00862,86.91847,85.50157,88.44524,88.12129,86.66777,85.73255,84.08748,82.21424,80.17198,0
2/6/2011,77.25959,75.321,74.37249,73.87379,74.76852,75.48479,75.99082,74.52651,74.30404,75.40657,75.28433,75.71214,75.43346,74.84675,74.67807,73.3702,74.2356,77.5236,80.08556,79.38639,78.98303,77.4356,74.46783,73.69778,0
2/7/2011,76.8475,76.4513,77.4198,78.2403,80.6895,83.6791,97.154,115.7075,127.3655,129.1464,129.9068,131.1075,127.3936,127.3735,125.2244,118.589,111.5334,109.1842,103.4732,98.8829,95.9974,92.1874,87.2689,83.2028,0
2/8/2011,80.0474,78.9467,78.628,81.053,83.7882,86.1014,96.0618,115.5026,129.0673,130.9708,135.5641,135.5558,131.7447,133.5364,132.7709,126.2162,116.8972,117.3151,113.7439,110.1314,110.9631,108.2692,103.2538,97.5019,0
2/9/2011,94.5333,93.6031,92.8076,93.3205,95.2505,97.5064,109.6295,127.7729,139.0527,141.1957,142.3997,140.7567,136.2795,135.4754,134.3278,127.7555,118.1057,117.6406,112.1246,109.0732,105.1002,99.4277,95.4026,89.1824,0
2/10/2011,87.2983,85.8875,84.7141,87.5744,90.5296,93.7998,106.6476,127.2049,136.2302,137.3648,139.6773,141.3339,136.4675,137.7833,134.7073,126.8209,116.8076,115.3968,112.282,109.2102,106.2809,103.2954,99.1322,93.8257,0
2/11/2011,90.5404,89.8476,89.5243,92.1697,93.1145,97.0574,106.2492,124.2086,133.7069,136.134,137.5616,135.6007,128.9494,129.5582,127.3369,117.9814,107.9876,108.8694,105.7453,102.3692,98.8168,95.4365,92.3586,87.2652,0
2/12/2011,85.44123,82.75068,82.16075,82.81684,83.42607,84.10698,87.04011,87.60799,89.83817,90.30956,87.56665,86.62385,86.82509,85.17658,84.54805,82.98225,83.49499,85.96775,87.64934,86.69277,86.45294,85.73895,83.97742,81.89335,0
2/13/2011,78.57523,76.94403,76.50028,76.99113,77.87614,77.02584,78.23808,77.3258,78.26783,79.50486,80.13949,78.65208,77.33076,76.8052,76.23255,75.85822,76.14331,79.2049,81.21292,79.79987,79.00658,77.16218,74.95089,73.47091,0
2/14/2011,75.7695,76.3471,76.3389,77.3261,77.7643,81.1682,94.075,113.855,126.4956,129.9404,134.188,133.0043,126.9953,127.663,125.0087,117.0377,106.5804,104.4954,101.6364,97.7451,96.2131,92.6004,88.7255,84.1583,0
2/15/2011,81.248,79.2224,80.6693,81.982,84.7415,88.2602,99.0804,120.1043,132.254,134.2293,137.3915,136.2592,130.8952,131.3733,131.0336,122.8471,113.2515,111.1001,109.8377,105.778,103.1233,98.9798,93.5403,88.4154,0
2/16/2011,85.0429,86.9639,87.1215,86.9307,87.8352,89.279,99.884,119.4426,131.508,133.5659,135.9225,135.6404,130.5412,130.313,128.8899,119.8699,109.4558,106.5059,102.3734,99.635,97.2245,92.3659,86.9058,81.4913,0
2/17/2011,79.9386,77.6415,76.8483,78.6781,80.9792,83.3155,91.4358,113.802,125.2638,126.4065,127.7612,128.6368,126.0295,126.4065,125.0165,117.1239,104.806,101.9749,96.348,93.6308,89.4489,84.7369,79.2711,74.2528,0
2/18/2011,70.9287,69.428,69.142,71.2704,73.8186,78.198,84.3195,103.2561,115.2689,118.6491,121.6875,119.9789,116.0786,117.3936,114.7303,105.912,96.8597,95.4074,91.5108,87.7554,85.523,80.1927,76.4076,73.0051,0
2/19/2011,66.78781,64.75645,64.51451,64.75645,66.28123,68.0656,69.65338,70.34647,74.0387,75.71721,76.6472,79.55815,79.54302,78.18711,77.08573,77.59231,78.46938,80.01936,82.10868,81.92974,82.56485,81.51389,80.14537,77.25711,0
2/20/2011,75.11576,75.86943,75.25236,76.15441,75.74932,76.39701,76.40879,75.22881,75.38661,74.87081,74.80251,75.32066,74.21369,72.89712,71.83255,71.80664,71.40154,73.91223,77.15775,75.40074,74.68239,72.95129,70.43354,68.91204,0
2/21/2011,70.4652,70.3804,70.5271,72.4577,73.5925,75.5427,83.6301,96.8538,103.4639,104.8303,106.1674,106.4022,105.2347,104.6249,106.8326,101.7193,96.5276,96.0026,95.6896,93.9677,92.6796,90.361,87.576,83.1181,0
2/22/2011,80.4171,78.2949,78.721,82.2337,85.2729,88.0753,100.2448,118.1225,135.109,138.7293,141.0238,139.9863,133.9898,134.2825,131.3251,122.9438,113.5422,111.6739,109.1557,104.782,103.4433,98.5401,93.6715,89.0568,0
2/23/2011,86.1894,85.9148,88.4843,90.1686,91.6397,92.8282,102.8437,118.2932,127.4318,133.7796,134.2509,133.8451,129.1898,129.3414,128.9439,123.051,110.8389,107.7736,103.987,101.893,99.2088,94.3977,90.0743,84.374,0
2/24/2011,82.805,82.9836,82.736,85.5929,87.139,90.5316,101.1759,119.1694,129.1239,130.459,132.9425,132.3095,129.6555,129.3836,126.3076,119.0639,108.4845,106.2485,100.9568,95.9085,94.2731,88.8353,83.6085,79.38,0
2/25/2011,76.4145,74.738,74.7265,76.6704,79.1795,81.0622,89.3609,107.4592,119.195,123.6136,125.1106,123.2852,120.0848,122.8231,120.8983,112.4506,103.644,104.7401,100.7072,97.3579,96.2275,94.3753,90.8274,85.1142,0
2/26/2011,80.42971,78.4293,77.06323,76.81581,76.90531,78.48984,79.70062,81.60627,85.53076,86.22827,84.87799,84.12258,81.74578,78.86887,76.5447,75.52344,76.53417,78.48194,81.29568,81.46677,81.62733,80.59291,77.3396,74.58377,0
2/27/2011,72.09459,69.3025,68.92933,68.56505,67.78984,69.15812,69.74674,69.4691,70.09326,69.64013,70.08216,70.73741,69.65568,69.51796,68.79161,67.36114,67.03907,68.33626,72.76763,71.60814,71.05284,71.13946,68.21632,66.68144,0
2/28/2011,71.9159,71.3065,72.1138,73.0996,74.6133,78.4403,90.9884,109.8125,122.1355,125.2948,127.1501,126.6106,123.8549,122.6362,120.2647,114.9125,108.7024,104.5922,97.7262,95.739,93.3482,88.0192,82.5156,78.4907,0
3/1/2011,77.0617,76.1792,77.6632,80.449,82.1941,86.4243,96.982,115.1849,127.3136,127.4521,129.6364,128.8569,125.1451,124.686,122.2841,114.8881,107.1796,103.8002,102.7911,100.7492,98.0504,93.3929,87.1128,81.6678,0
3/2/2011,79.2473,77.9339,78.1386,80.271,83.7748,86.0966,95.9899,114.4748,123.3985,126.1027,126.3113,126.5546,121.6717,121.1656,120.9532,116.0161,109.4335,103.7084,101.3364,100.332,99.5208,95.0975,89.8167,87.0469,0
3/3/2011,85.9622,87.6151,87.2755,89.8327,90.6347,94.1452,104.4762,120.1957,129.6552,131.3491,133.0143,134.0372,129.5243,129.6224,126.4597,120.1711,108.5104,104.5089,101.1007,99.5909,96.3914,92.1362,87.1037,83.8837,0
3/4/2011,80.653,78.7123,78.3373,80.6452,83.8191,86.7726,95.1769,114.4713,124.2983,126.4825,125.6784,126.6448,122.5664,121.4917,118.917,112.1286,103.1096,100.6045,98.1768,94.7323,91.7634,87.2056,81.6735,77.3979,0
3/5/2011,73.6285,71.21947,70.45217,69.9315,71.1547,72.58965,75.72363,77.95079,81.61291,81.61042,79.98862,79.03199,77.43261,75.73359,74.82927,73.22242,73.34947,74.00717,75.15064,73.7979,73.20748,72.03909,69.59519,66.6929,0
3/6/2011,63.94087,61.28888,61.12477,60.84907,60.55805,61.61053,62.151,62.05253,64.05465,66.39812,67.30837,68.28646,68.57528,67.83789,68.3871,67.63439,68.51839,70.35859,71.6824,71.13318,69.73279,67.34557,63.80958,61.94313,0
3/7/2011,65.5631,66.9283,67.192,69.0569,73.0503,77.2641,90.3617,110.0535,122.5374,127.0974,128.8914,128.0101,126.3774,123.5839,121.7269,113.6417,103.6994,99.1433,96.6607,95.4174,92.0929,89.0122,83.4608,78.8968,0
3/8/2011,77.9137,76.3639,76.9718,80.321,83.8675,86.8222,96.258,112.6378,124.8753,130.1809,131.5214,131.8757,126.8237,126.2319,125.926,117.871,107.2597,105.3073,103.4596,99.9534,98.8625,93.9312,88.6176,82.4505,0
3/9/2011,79.1053,78.2658,77.8201,77.5098,83.5217,85.4354,94.0693,112.1805,122.943,126.0782,129.7148,130.3434,126.5875,127.4628,128.3262,123.2215,111.91,109.8331,104.5771,101.1952,98.6329,92.8757,88.3638,82.4235,0
3/10/2011,78.3848,77.311,76.1928,79.6967,81.1701,84.7627,93.8171,114.041,126.4861,129.2674,132.085,132.2425,130.099,131.1243,129.8891,122.3283,110.1415,106.1815,99.973,95.5085,92.4971,87.1928,81.493,77.2181,0
3/11/2011,74.7505,73.64,71.7263,75.0022,77.4934,80.1216,86.8067,102.3905,114.2727,118.1742,121.2651,119.4402,114.6503,114.7058,113.1844,107.7986,98.9258,96.8566,93.6177,90.5638,88.961,85.1965,79.9661,77.4009,0
3/12/2011,72.97117,70.23099,71.06834,70.9802,70.83762,74.65883,78.69522,80.07178,84.92737,83.08676,80.41917,79.30184,78.87928,76.12613,71.9368,71.51165,70.77799,70.11693,74.37885,75.95503,74.54995,73.99258,73.07487,69.42994,0
3/13/2011,67.88063,66.93404,0,65.00781,66.07007,66.79476,65.166,64.3256,66.75936,72.24768,73.33119,72.02579,70.90216,71.38608,72.04468,72.71272,72.00691,73.02432,73.35951,77.33236,76.79651,75.55249,73.78442,69.13173,0
3/14/2011,69.2506,71.7941,71.0674,73.016,74.8687,79.1375,86.6321,110.5022,123.9706,127.8319,130.8106,129.6686,126.3465,126.1508,124.2422,118.061,107.787,104.0056,100.2203,96.6146,94.666,89.8505,86.1689,80.6666,0
3/15/2011,79.6818,77.1211,77.093,78.2329,83.4224,86.4768,95.9007,115.5833,126.8695,130.0322,131.4851,130.554,125.3644,126.3076,124.1443,115.0615,106.0751,102.3625,100.0868,98.8266,96.7034,91.3934,86.7577,79.9948,0
3/16/2011,76.031,74.7319,74.2949,73.9811,78.1207,82.8404,92.6293,112.0641,124.7214,128.5511,130.1482,127.7804,122.4688,122.7747,121.7497,113.3831,101.6832,99.1407,93.4874,90.5952,87.6474,84.1315,79.2251,73.5878,0
3/17/2011,70.7625,69.2241,68.8134,69.414,75.4281,78.2337,89.8007,109.4124,120.2006,123.0643,126.9471,125.7962,119.7782,122.7659,122.1769,114.264,102.8984,98.0003,91.0834,89.7581,85.6079,82.3025,74.781,69.3055,0
3/18/2011,66.0543,65.0932,64.6971,64.4109,70.005,73.831,83.4712,102.6599,116.0197,118.0959,117.7768,120.0511,116.4122,120.0841,120.1721,114.3396,102.5572,98.2616,90.7967,87.2532,82.4148,78.6108,72.4664,67.7601,0
3/19/2011,63.46105,60.56626,60.18244,59.66222,59.50962,62.36278,67.9119,70.5223,73.84252,75.7454,73.25292,73.38703,73.89107,69.78241,67.07722,67.03098,66.01364,65.80093,66.13619,69.72692,70.26565,69.73155,69.16507,67.72,0
3/20/2011,64.78854,63.36323,62.65571,62.00356,62.59829,64.36197,66.12155,65.98004,65.96569,66.27946,67.18386,66.92136,66.39225,65.24587,65.94519,64.8029,63.09048,62.94077,63.84722,66.71833,66.15847,66.17692,64.38658,62.78902,0
3/21/2011,63.9364,65.3475,64.1067,65.9882,68.6238,74.4343,88.61,109.6018,124.26,129.8191,132.8359,131.8993,127.9215,127.3173,124.9331,118.4251,108.0691,103.7183,96.9102,93.7556,90.086,86.5177,80.5531,74.5033,0
3/22/2011,72.6911,70.8021,71.5928,72.9506,78.0624,80.818,92.7947,113.102,125.5899,128.2257,130.8295,128.9805,126.9078,125.5221,124.3679,117.7665,107.3393,101.8282,98.2579,97.3873,94.3602,89.8435,84.1646,77.0121,0
3/23/2011,74.9498,73.9753,74.2231,74.0455,76.1802,80.2143,91.9819,112.0985,126.3683,129.8573,135.2663,133.5156,128.6805,130.1174,130.039,124.8241,116.9418,109.5261,104.596,101.4085,97.0854,91.7755,86.6349,79.9789,0
3/24/2011,78.7656,76.5844,76.0836,77.5364,80.1771,85.1687,96.9484,118.7155,129.8371,132.4529,135.5944,132.8172,128.1401,127.8379,127.035,120.6981,110.4168,102.8713,95.0279,94.7464,92.6645,90.1811,85.5247,79.5893,0
3/25/2011,77.0335,75.9483,75.4949,75.5336,79.2388,85.0834,96.102,113.0117,124.4605,126.3558,126.9681,125.3675,121.0267,120.6779,119.1237,113.7946,102.1559,100.7025,95.9121,93.8308,92.0751,88.3041,83.692,77.8823,0
3/26/2011,73.99111,72.11811,71.14344,71.39792,71.39283,75.64016,80.41427,83.36883,83.30521,83.34338,82.64864,82.84459,81.3635,76.81587,74.69602,72.64234,72.23517,71.9756,72.86374,76.44433,78.02722,77.7651,76.16439,74.72148,0
3/27/2011,71.18774,69.69535,68.35266,68.13147,68.54032,69.6462,70.67389,70.88166,71.90042,71.48265,71.4536,71.65244,71.41562,69.96121,69.44737,68.88661,69.24183,68.21414,69.07874,72.17298,73.1895,72.65332,69.44066,68.95586,0
3/28/2011,68.6806,73.0144,73.7753,75.7774,79.0328,85.5476,99.1552,116.7628,128.5147,132.1526,133.1089,133.3083,127.7416,127.8433,125.9918,117.6621,106.3781,101.4462,96.6119,94.4674,92.7827,88.2862,83.098,77.4173,0
3/29/2011,76.1583,74.0761,73.8158,76.3318,79.8692,87.9377,98.0254,117.0492,127.5903,128.1109,129.1914,126.8647,122.6372,121.9826,121.2806,114.5923,103.7081,99.8986,96.1956,95.5685,94.7798,89.0143,84.353,76.0952,0
3/30/2011,73.1962,72.7184,71.8841,72.7639,75.995,83.7579,92.9771,109.6863,121.1316,123.7521,124.2375,124.12,120.4527,121.0254,121.3667,114.1233,102.5946,99.9134,96.011,94.2476,90.3415,86.2761,79.6432,72.9042,0
3/31/2011,71.4969,69.2635,69.3379,69.4202,72.0024,78.0718,89.0743,108.9949,119.0296,124.5622,128.3629,126.9171,121.7998,124.3075,122.7324,114.5353,106.2638,102.0282,95.2534,92.5733,90.3517,85.9397,81.4337,75.1487,0
4/1/2011,72.1466,71.1023,70.4718,70.3085,73.7189,80.3195,89.062,107.7623,119.4709,122.1712,124.0093,124.4157,120.4621,120.8951,118.2822,112.0918,103.205,100.2693,96.2626,93.8055,91.7053,87.729,82.94,78.4016,0
4/2/2011,74.19269,70.95889,68.97241,69.34429,69.90559,70.87804,72.96615,74.50221,75.15821,75.671,74.90182,72.9061,71.77889,69.3697,68.78762,68.04154,67.84519,66.27218,66.54013,68.05078,69.72542,69.37664,67.74125,65.23736,0
4/3/2011,60.95516,60.27198,59.96233,58.75753,60.1535,62.48343,62.81712,63.79253,64.68502,64.17164,64.16571,63.48056,63.95246,63.21005,62.92572,61.99375,61.65413,60.29172,60.41809,62.51897,63.81425,63.80635,61.58305,60.58395,0
4/4/2011,61.0131,60.9944,60.7471,61.8859,66.838,73.3521,85.8783,103.9373,116.3399,119.9135,122.7154,121.5242,118.565,118.5987,119.2467,114.5044,105.3532,99.2774,93.475,89.6729,86.5601,82.4771,76.4387,70.9697,0
4/5/2011,67.7848,66.6753,66.3285,65.4502,69.11,70.2542,80.8294,101.1783,116.7539,122.3401,126.208,125.5145,121.7429,123.8503,122.3093,116.9658,105.3582,99.4832,94.8062,92.6219,89.667,85.279,80.1783,73.2399,0
4/6/2011,70.6728,69.7817,69.1209,69.1096,73.0969,78.8891,88.6497,106.9626,117.0819,120.82,122.0321,123.6972,119.389,118.6942,117.569,114.1821,104.4517,101.2346,95.2914,91.6251,89.3596,84.1187,80.3013,73.0667,0
4/7/2011,68.8266,67.2163,66.7754,67.3505,71.0081,77.6753,86.5661,107.8521,119.5647,123.4791,125.5993,125.5916,121.52,122.26,118.9705,111.8739,101.4763,97.0826,91.3164,86.9764,86.4703,82.7169,77.5794,73.3928,0
4/8/2011,69.3756,68.0417,68.2989,68.4496,71.3159,77.6291,86.1508,103.8264,115.4312,118.9774,120.3848,119.874,116.7027,119.3522,117.0996,108.7983,96.7231,96.1167,91.7291,89.3258,86.4742,81.0282,78.195,72.8299,0
4/9/2011,69.48393,66.12647,65.10156,63.52001,64.41902,66.76261,69.62088,70.70542,72.22953,72.36206,71.22009,69.66284,68.70862,67.56222,67.01663,66.71181,66.06241,66.10438,66.45117,67.47166,67.97749,67.65721,66.73832,64.09432,0
4/10/2011,61.35894,58.90609,57.83981,58.18396,57.72244,58.79071,60.04598,59.5009,62.21634,63.19906,63.69043,64.35885,64.47026,63.96496,64.36283,63.4915,63.64468,63.47359,62.55651,63.86151,65.1705,64.9636,62.23822,60.12555,0
4/11/2011,60.2613,60.4185,59.8934,60.5028,63.1552,70.0775,81.009,100.5531,112.8836,115.8158,121.3352,122.4314,120.0397,123.5928,122.5668,119.4878,107.9161,104.3055,94.7232,90.0968,87.9734,82.8679,76.8081,71.3615,0
4/12/2011,68.1416,65.2475,63.5587,64.3143,67.367,69.2032,81.1344,101.298,116.2026,119.7238,123.6832,123.7701,120.4718,121.1368,117.4569,111.9485,101.929,97.5917,92.5593,88.9475,85.4452,80.545,76.1284,70.3631,0
4/13/2011,67.1794,65.9845,63.7642,63.8283,65.5057,71.0054,81.8991,102.895,117.8787,121.4408,123.4876,123.1823,119.7973,121.29,121.716,115.0742,105.0399,98.055,92.2765,91.4698,87.2367,83.4823,79.0306,71.8497,0
4/14/2011,69.4776,67.9186,66.5064,66.4047,68.7433,74.0755,83.5425,104.3406,115.6039,120.7215,122.514,123.3651,118.914,123.301,122.1789,115.5625,106.5247,99.6937,92.0418,86.653,86.0957,81.1061,75.1149,69.4587,0
4/15/2011,65.2036,63.1659,63.5192,64.5255,63.9367,69.9464,76.8161,98.1426,110.7223,113.174,116.5607,116.9104,112.8564,114.6871,114.2374,108.6025,97.0863,95.0629,90.4664,86.4195,83.7287,82.7259,79.0644,72.6372,0
4/16/2011,67.47115,65.04347,63.47918,62.07735,61.35555,65.32199,70.33979,72.88118,76.03298,75.97032,74.74951,75.51774,74.34104,70.91306,69.242,68.95885,68.13725,68.65249,70.27481,69.01687,68.9983,68.84745,65.68637,62.99875,0
4/17/2011,60.50032,58.08108,57.48539,56.82437,56.52846,57.81782,57.36818,56.63991,58.93617,61.50337,61.23051,62.3969,62.24702,62.86768,62.95031,62.15671,61.6129,61.36118,61.12099,61.43612,62.77929,61.586,59.10911,58.53841,0
4/18/2011,58.4043,58.0024,58.959,59.5849,63.1447,69.9158,79.0803,99.2264,107.6939,112.4095,116.5027,116.3747,111.5097,112.9464,112.5766,107.3418,99.9235,93.6894,89.2085,85.3997,82.8606,79.1479,74.5745,67.4443,0